This is the latest recevied weather packets stored in our database for station/object SR8WXE. If no packets are shown the sender has not sent any weather packets the latest 1 day(s).
| Time | Temp. | Humidity | Pressure | Rain* | Wind** | Luminosity | Snow |
|---|---|---|---|---|---|---|---|
| 1777971026 | 22.22° C | 20% | 1013 hPa | 0 mm | 3.13 m/s, 261° | - | - |
| 1777970725 | 22.22° C | 20% | 1013.2 hPa | 0 mm | 3.58 m/s, 203° | - | - |
| 1777970425 | 22.22° C | 20% | 1013.2 hPa | 0 mm | 3.13 m/s, 222° | - | - |
| 1777970125 | 22.22° C | 20% | 1013.3 hPa | 0 mm | 4.47 m/s, 189° | - | - |
| 1777969825 | 22.22° C | 21% | 1013.4 hPa | 0 mm | 3.58 m/s, 205° | - | - |
| 1777969524 | 22.22° C | 20% | 1013.4 hPa | 0 mm | 4.02 m/s, 226° | - | - |
| 1777969224 | 22.22° C | 24% | 1013.4 hPa | 0 mm | 3.13 m/s, 281° | - | - |
| 1777968924 | 22.22° C | 24% | 1013.4 hPa | 0 mm | 1.34 m/s, 201° | - | - |
| 1777968623 | 21.67° C | 24% | 1013.5 hPa | 0 mm | 1.34 m/s, 225° | - | - |
| 1777968323 | 21.67° C | 25% | 1013.5 hPa | 0 mm | 1.34 m/s, 227° | - | - |
| 1777968023 | 21.11° C | 25% | 1013.6 hPa | 0 mm | 3.13 m/s, 271° | - | - |
| 1777967723 | 21.11° C | 26% | 1013.6 hPa | 0 mm | 0.89 m/s, 239° | - | - |
| 1777967422 | 21.11° C | 27% | 1013.7 hPa | 0 mm | 4.02 m/s, 222° | - | - |
| 1777967122 | 21.11° C | 28% | 1013.7 hPa | 0 mm | 0.89 m/s, 225° | - | - |
| 1777966822 | 21.11° C | 30% | 1013.8 hPa | 0 mm | 3.13 m/s, 135° | - | - |
| 1777966521 | 20.56° C | 27% | 1013.8 hPa | 0 mm | 0.45 m/s, 225° | - | - |
| 1777966221 | 20.56° C | 30% | 1013.8 hPa | 0 mm | 0.89 m/s, 212° | - | - |
| 1777965921 | 20° C | 29% | 1013.9 hPa | 0 mm | 1.79 m/s, 201° | - | - |
| 1777965621 | 20° C | 29% | 1013.9 hPa | 0 mm | 1.79 m/s, 199° | - | - |
| 1777965320 | 20° C | 29% | 1013.9 hPa | 0 mm | 1.34 m/s, 198° | - | - |
| 1777965020 | 20° C | 29% | 1013.8 hPa | 0 mm | 1.79 m/s, 258° | - | - |
| 1777964720 | 20° C | 29% | 1013.9 hPa | 0 mm | 1.79 m/s, 239° | - | - |
| 1777964419 | 20° C | 29% | 1014 hPa | 0 mm | 1.79 m/s, 233° | - | - |
| 1777964119 | 20° C | 29% | 1014 hPa | 0 mm | 2.68 m/s, 198° | - | - |
| 1777963819 | 19.44° C | 32% | 1013.9 hPa | 0 mm | 2.24 m/s, 250° | - | - |
* Rain latest hour (hover to see other rain measurements)
** Current wind speed in m/s (hover to see current wind gust speed)